Regional Weather Roundup
Issued by NWS

Home | Current Version | Previous Version | Text Only | Print | Product List | Glossary On
Versions: 1 2 3 4 5 6 7 8 9 10 11 12 13 14 15 16 17 18 19 20 21 22 23 24 25 26 27 28 29 30 31 32 33 34 35 36 37 38 39 40 41 42 43 44 45 46 47 48 49 50
000
ASUS43 KMPX 021301
RWRMN
WEATHER ROUNDUP FOR MINNESOTA
NATIONAL WEATHER SERVICE TWIN CITIES/CHANHASSEN MN
800 AM CDT TUE JUN 02 2015


NOTE: "FAIR" INDICATES FEW OR NO CLOUDS BELOW 12,000 FEET WITH NO
SIGNIFICANT WEATHER AND/OR OBSTRUCTIONS TO VISIBILITY. N/A MEANS
CURRENT SKY AND/OR WEATHER CONDITIONS ARE NOT AVAILABLE.

MNZ060>063-068>070-021400-
   Twin Cities Metro

CITY           SKY/WX    TMP DP  RH WIND       PRES   REMARKS
TWIN CITIES    PTSUNNY   59  46  62 S10       30.08F
ST PAUL        MOSUNNY   58  46  64 SE12      30.09F
CRYSTAL        PTSUNNY   62  47  57 S9        30.06S
EDEN PRAIRIE   PTSUNNY   61  48  62 S14G20    30.06F
LAKE ELMO      FAIR      57  45  62 S8        30.10S
$$
MNZ001>005-007-008-013>017-022>024-027-028-021400-
   Northwest Minnesota

CITY           SKY/WX    TMP DP  RH WIND       PRES   REMARKS
ROSEAU         CLOUDY    61  52  72 S12       29.87R
THIEF RVR FALL CLOUDY    55  52  88 S13       29.89F
CROOKSTON      RAIN      55  55 100 S15       29.88F
DETROIT LAKES  CLOUDY    59  48  67 SE12      29.93F
PARK RAPIDS    CLOUDY    59  44  57 S13       29.96S
MAHNOMEN       TSTM      57  51  81 S10       29.92R
$$
MNZ006-009>011-018-025>026-021400-
   North Central Minnesota

CITY           SKY/WX    TMP DP  RH WIND       PRES   REMARKS
BAUDETTE       CLOUDY    57  45  64 S8        29.92R
INTL FALLS     CLOUDY    55  42  61 SE7       29.94F
BIG FORK       CLOUDY    55  43  62 S8        29.99R
LONGVILLE      PTSUNNY   61  46  59 S9G16     29.99S
GRAND RAPIDS   CLOUDY    54  41  62 S12       30.02R
CRANE LAKE     CLOUDY    55  41  58 CALM      30.02S
ORR            CLOUDY    57  37  47 S8G17     29.97F
WALKER         PTSUNNY   57  44  60 S6        29.96S
$$
MNZ012-019>021-037-021400-
   Northeast Minnesota

CITY           SKY/WX    TMP DP  RH WIND       PRES   REMARKS
DULUTH         MOSUNNY   53  39  59 S8        30.07F
HIBBING        CLOUDY    53  41  63 S7        30.04S
SILVER BAY     PTSUNNY   52  43  71 CALM      30.08S
GRAND MARAIS     N/A     42  36  79 NE5       30.12F
$$
MNZ029>031-032-039>041-046>048-054>057-064-021400-
   West Central Minnesota

CITY           SKY/WX    TMP DP  RH WIND       PRES   REMARKS
WHEATON        CLOUDY    61  52  72 SE17G23   29.90F
ALEXANDRIA     CLOUDY    62  49  62 S17G23    29.97F
ELBOW LAKE     FAIR      61  50  68 S20       29.92F
WADENA         PTSUNNY   61  46  59 S12G17    29.96S
APPLETON       CLOUDY    63  52  67 S14G20    29.93S
WILLMAR        FAIR      61  52  72 S7G17     30.01R
$$
MNZ033>034-036-042>043-049>051-058-059-021400-
   Central Minnesota

CITY           SKY/WX    TMP DP  RH WIND       PRES   REMARKS
ST CLOUD       PTSUNNY   60  49  66 S12       30.03R
SAUK CENTRE    FAIR      59  48  65 S10       30.00R
BRAINERD       PTSUNNY   61  46  57 S13       30.02R
LONG PRAIRIE   FAIR      59  46  63 SE13G18   30.00S
LITTLE FALLS   PTSUNNY   59  43  55 S10       30.02R
BUFFALO        PTSUNNY   59  47  64 SE8       30.05F
MAPLE LAKE     PTSUNNY   60  51  70 SE8       30.04S
$$
MNZ037-044-045-052-053-021400-
   East Central Minnesota

CITY           SKY/WX    TMP DP  RH WIND       PRES   REMARKS
MORA           MOSUNNY   55  41  58 S12       30.07S
CAMBRIDGE      MOSUNNY   61  45  55 S10       30.04S
RUSH CITY      SUNNY     56  44  63 S7        30.07S
MOOSE LAKE     SUNNY     55  41  58 S8        30.05S
CLOQUET        MOSUNNY   46  37  71 SE3       30.06F
$$
MNZ071>073-080-081-089-090-097-098-021400-
   Southwest Minnesota

CITY           SKY/WX    TMP DP  RH WIND       PRES   REMARKS
CANBY          PTSUNNY   62  52  71 S14G22    29.93F
MARSHALL       PTSUNNY   63  50  63 S21G26    29.95F
REDWOOD FALLS  CLOUDY    61  53  75 S16       29.99F
WORTHINGTON    PTSUNNY   59  50  72 S18       30.01F
SLAYTON        PTSUNNY   59  54  81 S16G24    29.99F
$$
MNZ065>067-074>077-082>085-091>093-021400-
   South Central Minnesota

CITY           SKY/WX    TMP DP  RH WIND       PRES   REMARKS
MANKATO        PTSUNNY   59  50  72 S12       30.06F
ST JAMES       PTSUNNY   61  55  82 SE13      30.05F
FAIRMONT       PTSUNNY   57  48  72 S17       30.05F
GLENCOE        CLOUDY    60  52  75 S7        30.04S
OWATONNA       PTSUNNY   59  48  67 S14       30.09F
WASECA         PTSUNNY   55  46  71 S9        30.10F
$$
MNZ078>079-086>088-094>096-021400-
   Southeast Minnesota

CITY           SKY/WX    TMP DP  RH WIND       PRES   REMARKS
ROCHESTER      PTSUNNY   55  47  74 SE12      30.15S
AUSTIN         PTSUNNY   55  48  76 S8        30.12S
$$
ABBREVIATIONS USED IN REMARKS
   TC - TEMPERATURES IN CELSIUS
  WCI - WIND CHILL INDEX
   HX - HEAT INDEX
  VSB - VISIBILITY
$$


USA.gov is the U.S. government's official web portal to all federal, state and local government web resources and services.